• In Deutschland
  • Länderverzeichnis
  • Für 7 Tage
  • Wassertemperatur
  • Satellitenkarten
  • Wetterkarte
  • Widgets
  • user-avatar
    Anmelden

    Stündliche Wetter Kalat

    Heute, 21 August, Dienstag

    Zeit Temperatur Niederschläge Wind Luftdruck Luftfeuchtigkeit
    00:00 +8°C° 0 mm 3 m/S 481 mmHg 41%
    01:00 +8°C° 0 mm 3 m/S 480 mmHg 43%
    02:00 +7°C° 0 mm 3 m/S 480 mmHg 45%
    03:00 +5°C° 0 mm 3 m/S 480 mmHg 45%
    04:00 +5°C° 0 mm 3 m/S 479 mmHg 46%
    05:00 +4°C° 0 mm 3 m/S 479 mmHg 50%
    06:00 +5°C° 0 mm 3 m/S 480 mmHg 45%
    07:00 +7°C° 0 mm 3 m/S 480 mmHg 39%
    08:00 +8°C° 0 mm 3 m/S 481 mmHg 33%
    09:00 +10°C° 0 mm 3 m/S 482 mmHg 29%
    10:00 +12°C° 0 mm 3 m/S 483 mmHg 25%
    11:00 +13°C° 0 mm 3 m/S 484 mmHg 23%
    12:00 +14°C° 0 mm 3 m/S 484 mmHg 23%
    13:00 +16°C° 0 mm 3 m/S 485 mmHg 22%
    14:00 +17°C° 0 mm 4 m/S 485 mmHg 22%
    15:00 +15°C° 0 mm 4 m/S 485 mmHg 26%
    16:00 +15°C° 0 mm 4 m/S 484 mmHg 30%
    17:00 +14°C° 0 mm 4 m/S 484 mmHg 33%
    18:00 +13°C° 0 mm 4 m/S 483 mmHg 40%
    19:00 +12°C° 0 mm 3 m/S 482 mmHg 47%
    20:00 +10°C° 0 mm 3 m/S 482 mmHg 54%
    21:00 +10°C° 0 mm 3 m/S 481 mmHg 57%
    22:00 +9°C° 0 mm 2 m/S 481 mmHg 60%
    23:00 +8°C° 0 mm 2 m/S 481 mmHg 63%

    Morgen, 22 August, Mittwoch

    Zeit Temperatur Niederschläge Wind Luftdruck Luftfeuchtigkeit
    00:00 +8°C° 0 mm 2 m/S 480 mmHg 64%
    01:00 +7°C° 0 mm 2 m/S 480 mmHg 65%
    02:00 +7°C° 0 mm 2 m/S 479 mmHg 66%
    03:00 +6°C° 0 mm 2 m/S 479 mmHg 66%
    04:00 +6°C° 0 mm 2 m/S 478 mmHg 67%
    05:00 +5°C° 0 mm 2 m/S 478 mmHg 67%
    06:00 +6°C° 0 mm 2 m/S 479 mmHg 60%
    07:00 +7°C° 0 mm 2 m/S 479 mmHg 53%
    08:00 +8°C° 0 mm 2 m/S 480 mmHg 46%
    09:00 +10°C° 0 mm 2 m/S 481 mmHg 39%
    10:00 +12°C° 0 mm 2 m/S 482 mmHg 33%
    11:00 +14°C° 0 mm 2 m/S 483 mmHg 27%
    12:00 +14°C° 0 mm 3 m/S 483 mmHg 26%
    13:00 +14°C° 0 mm 3 m/S 483 mmHg 26%
    14:00 +15°C° 0 mm 4 m/S 484 mmHg 25%
    15:00 +15°C° 0 mm 4 m/S 483 mmHg 28%
    16:00 +14°C° 0 mm 4 m/S 483 mmHg 31%
    17:00 +14°C° 0 mm 4 m/S 483 mmHg 34%
    18:00 +13°C° 0 mm 4 m/S 482 mmHg 38%
    19:00 +11°C° 0 mm 3 m/S 481 mmHg 43%
    20:00 +10°C° 0 mm 3 m/S 481 mmHg 48%
    21:00 +9°C° 0 mm 2 m/S 481 mmHg 50%
    22:00 +9°C° 0 mm 2 m/S 480 mmHg 52%
    23:00 +8°C° 0 mm 2 m/S 480 mmHg 55%

    übermorgen, 23 August, Donnerstag

    Zeit Temperatur Niederschläge Wind Luftdruck Luftfeuchtigkeit
    00:00 +9°C° 0 mm 1 m/S 480 mmHg 56%
    01:00 +8°C° 0 mm 1 m/S 479 mmHg 58%
    02:00 +8°C° 0 mm 1 m/S 479 mmHg 59%
    03:00 +7°C° 0 mm 1 m/S 478 mmHg 60%
    04:00 +7°C° 0 mm 1 m/S 478 mmHg 61%
    05:00 +5°C° 0 mm 2 m/S 478 mmHg 62%
    06:00 +6°C° 0 mm 2 m/S 478 mmHg 54%
    07:00 +7°C° 0 mm 2 m/S 479 mmHg 46%
    08:00 +8°C° 0 mm 2 m/S 480 mmHg 38%
    09:00 +10°C° 0 mm 2 m/S 481 mmHg 33%
    10:00 +13°C° 0 mm 2 m/S 482 mmHg 27%
    11:00 +14°C° 0 mm 2 m/S 483 mmHg 21%
    12:00 +14°C° 0 mm 3 m/S 483 mmHg 21%
    13:00 +16°C° 0 mm 3 m/S 483 mmHg 21%
    14:00 +17°C° 0 mm 4 m/S 484 mmHg 21%
    15:00 +15°C° 0 mm 4 m/S 483 mmHg 23%
    16:00 +15°C° 0 mm 4 m/S 483 mmHg 26%
    17:00 +14°C° 0 mm 4 m/S 483 mmHg 29%
    18:00 +13°C° 0 mm 4 m/S 482 mmHg 34%
    19:00 +12°C° 0 mm 3 m/S 482 mmHg 39%
    20:00 +10°C° 0 mm 3 m/S 481 mmHg 44%
    21:00 +9°C° 0 mm 2 m/S 481 mmHg 46%
    22:00 +9°C° 0 mm 2 m/S 480 mmHg 49%
    23:00 +8°C° 0 mm 2 m/S 480 mmHg 52%

    24 August, Freitag

    Zeit Temperatur Niederschläge Wind Luftdruck Luftfeuchtigkeit
    00:00 +8°C° 0 mm 2 m/S 480 mmHg 54%
    01:00 +7°C° 0 mm 2 m/S 479 mmHg 56%
    02:00 +6°C° 0 mm 2 m/S 479 mmHg 58%
    03:00 +6°C° 0 mm 2 m/S 478 mmHg 60%
    04:00 +5°C° 0 mm 2 m/S 478 mmHg 62%
    05:00 +5°C° 0 mm 2 m/S 478 mmHg 63%
    06:00 +6°C° 0 mm 2 m/S 478 mmHg 57%
    07:00 +5°C° 0 mm 3 m/S 479 mmHg 51%
    08:00 +7°C° 0 mm 3 m/S 480 mmHg 45%
    09:00 +9°C° 0 mm 3 m/S 480 mmHg 39%
    10:00 +10°C° 0 mm 3 m/S 481 mmHg 32%
    11:00 +11°C° 0 mm 3 m/S 482 mmHg 26%
    12:00 +12°C° 0 mm 3 m/S 482 mmHg 25%
    13:00 +13°C° 0 mm 4 m/S 483 mmHg 24%
    14:00 +14°C° 0 mm 4 m/S 483 mmHg 24%
    15:00 +13°C° 0 mm 4 m/S 482 mmHg 26%
    16:00 +13°C° 0 mm 4 m/S 482 mmHg 28%
    17:00 +12°C° 0 mm 4 m/S 482 mmHg 30%
    18:00 +11°C° 0 mm 4 m/S 481 mmHg 33%
    19:00 +10°C° 0 mm 3 m/S 481 mmHg 37%
    20:00 +8°C° 0 mm 3 m/S 480 mmHg 41%
    21:00 +8°C° 0 mm 3 m/S 480 mmHg 43%
    22:00 +7°C° 0 mm 2 m/S 479 mmHg 44%
    23:00 +7°C° 0 mm 2 m/S 479 mmHg 46%

    25 August, Samstag

    Zeit Temperatur Niederschläge Wind Luftdruck Luftfeuchtigkeit
    00:00 +6°C° 0 mm 2 m/S 479 mmHg 47%
    01:00 +6°C° 0 mm 2 m/S 478 mmHg 49%
    02:00 +6°C° 0 mm 1 m/S 478 mmHg 50%
    03:00 +6°C° 0 mm 1 m/S 477 mmHg 51%
    04:00 +6°C° 0 mm 1 m/S 477 mmHg 52%
    05:00 +5°C° 0 mm 1 m/S 477 mmHg 53%
    06:00 +6°C° 0 mm 1 m/S 477 mmHg 47%
    07:00 +7°C° 0 mm 1 m/S 478 mmHg 41%
    08:00 +8°C° 0 mm 1 m/S 479 mmHg 35%
    09:00 +9°C° 0 mm 2 m/S 480 mmHg 30%
    10:00 +10°C° 0 mm 2 m/S 481 mmHg 25%
    11:00 +12°C° 0 mm 2 m/S 481 mmHg 21%
    12:00 +12°C° 0 mm 3 m/S 482 mmHg 21%
    13:00 +13°C° 0 mm 3 m/S 482 mmHg 21%
    14:00 +14°C° 0 mm 4 m/S 482 mmHg 21%
    15:00 +13°C° 0 mm 4 m/S 481 mmHg 23%
    16:00 +13°C° 0 mm 4 m/S 481 mmHg 24%
    17:00 +12°C° 0 mm 4 m/S 481 mmHg 26%
    18:00 +11°C° 0 mm 4 m/S 480 mmHg 29%
    19:00 +10°C° 0 mm 3 m/S 480 mmHg 31%
    20:00 +8°C° 0 mm 3 m/S 479 mmHg 34%
    21:00 +8°C° 0 mm 2 m/S 479 mmHg 36%
    22:00 +7°C° 0 mm 2 m/S 478 mmHg 37%
    23:00 +6°C° 0 mm 2 m/S 478 mmHg 39%

    26 August, Sonntag

    Zeit Temperatur Niederschläge Wind Luftdruck Luftfeuchtigkeit
    00:00 +6°C° 0 mm 2 m/S 478 mmHg 40%
    01:00 +5°C° 0 mm 2 m/S 477 mmHg 41%
    02:00 +5°C° 0 mm 2 m/S 477 mmHg 43%
    03:00 +4°C° 0 mm 2 m/S 476 mmHg 44%
    04:00 +4°C° 0 mm 2 m/S 476 mmHg 45%
    05:00 +3°C° 0 mm 2 m/S 476 mmHg 47%
    06:00 +4°C° 0 mm 2 m/S 476 mmHg 43%
    07:00 +5°C° 0 mm 2 m/S 477 mmHg 40%
    08:00 +6°C° 0 mm 2 m/S 478 mmHg 36%
    09:00 +7°C° 0 mm 2 m/S 478 mmHg 33%
    10:00 +8°C° 0 mm 2 m/S 479 mmHg 30%
    11:00 +9°C° 0 mm 3 m/S 480 mmHg 27%
    12:00 +10°C° 0 mm 3 m/S 480 mmHg 27%
    13:00 +11°C° 0 mm 3 m/S 480 mmHg 27%
    14:00 +12°C° 0 mm 4 m/S 481 mmHg 27%
    15:00 +11°C° 0 mm 4 m/S 480 mmHg 29%
    16:00 +11°C° 0 mm 4 m/S 480 mmHg 31%
    17:00 +10°C° 0 mm 4 m/S 480 mmHg 33%
    18:00 +8°C° 0 mm 4 m/S 479 mmHg 36%
    19:00 +8°C° 0 mm 3 m/S 479 mmHg 40%
    20:00 +7°C° 0 mm 3 m/S 478 mmHg 43%
    21:00 +6°C° 0 mm 2 m/S 478 mmHg 45%
    22:00 +6°C° 0 mm 2 m/S 478 mmHg 46%
    23:00 +5°C° 0 mm 2 m/S 478 mmHg 48%
    Mehr zeigen